Flag for U.S.A. Weather past 2 weeks in Bismarck, North Dakota, U.S.A.

Now
16 °F

Overcast.


Feels Like: 4 °F
Forecast: 12 / 23 °F
Wind: 10 mph from Southeast

Location: Bismarck Municipal Airport

Current Time: Dec 18, 2014 at 6:05:37 AM

Latest Report: Dec 18, 2014 at 4:52 AM


Visibility: 10 mi

Pressure: 30.21 "Hg

Humidity: 92%

Dew point: 14 °F

Location of BismarckLocation

Historic Weather in Bismarck — Graph

°F

Bismarck temperature yesterday

Maximum temperature yesterday: 19 °F (at 1:52 PM)
Minimum temperature yesterday: 11 °F (at 5:52 PM)
Average temperature yesterday: 15 °F

Past Weeks' High & Low Weather Summary

 TemperatureHumidityPressure
High48 °F (Dec 12, 2:52 PM)100% (Dec 11, 9:00 PM)30.58 "Hg (Dec 11, 9:00 PM)
Low-1 °F (Dec 4, 7:52 AM)56% (Dec 12, 2:52 PM)29.70 "Hg (Dec 14, 4:00 AM)
Average24 °F83%30.16 "Hg
* Reported Dec 3 4:52 AM — Dec 18 4:52 AM, Bismarck, Weather by CustomWeather, © 2014

Note: Actual official high and low records may vary slightly from our data, if they occured in-between our weather recording intervals... More about our weather records

Advertising

Bismarck weather history for previous 24 hours

 ConditionsComfort  
Time TempWeatherWind HumidityBarometerVisibility
4:52 AM
Dec 18
16 °FOvercast.10 mph92%30.21 "Hg10 mi
3:52 AM16 °FOvercast.12 mph87%30.23 "Hg10 mi
2:52 AM17 °FOvercast.9 mph83%30.24 "Hg10 mi
1:52 AM17 °FPassing clouds.10 mph80%30.24 "Hg10 mi
12:52 AM17 °FOvercast.12 mph80%30.25 "Hg10 mi
11:52 PM
Dec 17
17 °FOvercast.10 mph80%30.26 "Hg10 mi
10:52 PM17 °FOvercast.8 mph83%30.27 "Hg10 mi
9:52 PM17 °FOvercast.8 mph80%30.28 "Hg10 mi
8:52 PM16 °FOvercast.7 mph84%30.29 "Hg10 mi
7:52 PM15 °FClear.6 mph83%30.30 "Hg10 mi
6:52 PM13 °FClear.5 mph88%30.31 "Hg10 mi
5:52 PM11 °FClear.7 mph92%30.30 "Hg10 mi
4:52 PM14 °FSunny.6 mph84%30.31 "Hg10 mi
3:52 PM18 °FSunny.12 mph74%30.30 "Hg10 mi
2:52 PM19 °FSunny.12 mph68%30.29 "Hg10 mi
1:52 PM19 °FSunny.10 mph68%30.31 "Hg10 mi
12:52 PM17 °FScattered clouds.10 mph70%30.34 "Hg10 mi
11:52 AM15 °FOvercast.7 mph77%30.37 "Hg9 mi
10:52 AM14 °FOvercast.7 mph80%30.40 "Hg6 mi
9:52 AM14 °FLight snow. Overcast.9 mph80%30.40 "Hg4 mi
8:52 AM14 °FLight snow. Ice fog.6 mph84%30.38 "Hg4 mi
7:52 AM14 °FOvercast.8 mph84%30.38 "Hg9 mi
6:52 AM14 °FOvercast.8 mph84%30.39 "Hg10 mi
Weather by CustomWeather, © 2014

See weather overviewHow to use our weather pages